Theta_e
306 305 304 303 303 301 300 300 300 300 301 301 302 303 303 303 303 301 299 308 302 296 296 299 300 295 295 293 288 294 292 293 292 286 286 287 285 287 285 287 284 282 280 279 284 281 277 299 295 288 292 295 296 295
306 305 304 303 303 301 300 300 300 300 300 301 302 302 303 303 303 302 297 302 303 298 297 302 302 303 301 300 296 295 293 292 293 288 288 287 284 285 284 280 291 281 285 284 286 284 294 297 296 299 299 296 294 293
305 305 304 303 303 302 300 300 301 301 301 301 301 302 303 303 303 302 297 299 299 296 296 298 300 306 307 305 306 294 295 298 295 297 291 288 283 287 280 283 287 290 292 284 286 291 293 297 298 300 301 300 297 299
305 305 304 304 303 302 301 301 301 302 302 302 302 302 302 303 302 302 297 299 298 296 290 295 305 300 304 303 303 305 301 301 299 297 293 288 283 290 285 288 287 290 291 288 289 292 295 297 299 300 300 300 298 296
305 305 304 304 303 303 303 302 302 302 303 303 302 302 303 302 302 302 300 300 301 296 291 293 299 301 302 305 303 302 301 298 295 294 290 289 292 291 290 289 286 291 291 288 287 295 295 295 299 300 297 296 296 295
305 304 304 303 304 304 304 303 303 303 302 302 302 302 302 302 302 299 297 305 303 300 294 286 295 297 301 303 302 301 302 300 297 294 291 293 294 292 287 284 291 293 296 298 294 297 297 299 299 300 297 296 295 294
304 303 303 303 303 303 302 302 302 302 302 302 302 302 302 302 299 293 293 299 302 300 293 287 289 300 301 302 301 300 303 300 298 296 293 293 291 294 289 284 291 294 296 297 299 298 295 295 295 297 296 296 296 292
303 303 302 301 301 301 301 302 302 302 301 301 301 301 301 302 300 295 299 302 301 296 294 287 288 293 304 297 295 301 298 299 296 294 295 291 293 293 287 291 292 293 295 297 297 298 297 297 296 295 295 294 290 288
302 301 301 301 301 301 301 301 301 301 301 300 300 301 299 296 294 300 306 306 301 296 291 291 286 285 300 295 296 295 297 292 297 292 291 293 292 287 289 290 290 292 294 295 296 296 295 294 293 293 293 291 288 287
301 300 300 300 300 299 300 300 299 299 300 300 298 295 294 298 303 304 298 294 294 294 295 288 292 287 293 293 291 292 295 291 288 293 296 290 290 293 294 293 294 295 297 297 293 291 292 291 291 292 291 290 289 289
300 300 299 299 299 299 299 299 299 299 300 297 295 295 299 305 299 296 291 290 291 288 292 292 292 289 297 290 289 294 289 290 286 291 291 287 286 290 294 294 295 297 298 297 296 295 294 293 292 291 290 289 289 289
299 299 299 299 299 299 299 298 298 297 296 295 294 298 298 295 292 288 288 291 290 287 293 291 293 294 295 299 292 292 289 290 286 295 291 286 290 293 294 294 296 299 297 296 295 295 294 294 293 291 290 289 290 290
299 299 299 299 299 299 298 298 298 298 299 299 294 291 290 290 283 283 282 286 287 292 296 295 292 295 297 297 293 292 288 286 295 290 288 289 292 294 294 295 297 298 298 296 296 295 295 294 293 291 290 291 291 291
299 299 299 299 298 298 298 298 298 298 295 290 289 283 285 284 286 287 287 289 295 297 296 295 292 293 295 293 293 289 291 292 287 285 284 289 292 294 295 297 299 297 297 296 295 294 294 293 291 291 292 292 291 291
299 299 299 298 298 298 298 298 297 297 293 289 289 282 285 289 291 292 294 295 298 299 297 294 292 293 291 290 291 289 288 286 287 284 288 293 294 295 295 296 299 299 297 295 295 294 294 293 291 290 292 292 293 293
298 297 296 298 298 298 298 297 297 296 293 290 288 286 289 289 290 292 293 293 298 296 296 295 291 287 287 289 287 286 287 286 289 292 295 295 294 295 295 298 301 299 297 295 295 295 295 295 291 291 293 294 294 294
296 294 298 298 299 298 298 295 295 290 288 287 285 290 289 289 288 290 292 293 298 295 289 291 287 286 291 286 285 290 289 292 294 296 296 296 294 296 297 300 302 298 296 295 295 295 295 296 296 293 290 293 295 294
294 297 297 298 298 296 294 293 290 288 284 287 285 287 289 290 289 291 293 295 295 293 293 290 293 287 285 284 286 292 292 296 297 297 298 297 298 299 302 301 300 298 296 296 296 296 297 295 294 293 293 295 295 295
295 298 297 298 297 294 289 290 291 284 286 288 289 290 290 291 293 294 294 295 296 297 294 291 288 286 287 291 291 293 294 296 294 296 298 300 300 301 303 301 300 297 297 296 297 297 297 297 297 296 295 294 293 294
297 297 297 297 297 291 289 289 295 288 284 287 290 289 290 290 293 294 294 294 293 292 289 287 287 290 291 295 297 296 297 298 297 294 296 298 301 302 303 300 298 298 297 297 297 295 298 297 298 297 297 297 295 295
295 295 296 296 293 292 289 289 289 289 289 287 290 290 289 293 293 294 294 297 294 290 288 291 292 294 297 299 298 299 296 298 295 295 294 294 300 301 303 301 299 297 296 296 296 297 297 296 297 298 297 297 296 296
296 298 295 294 290 290 289 290 287 290 288 288 288 289 289 288 289 291 295 290 290 292 293 294 294 295 296 297 297 299 298 299 299 295 294 295 299 301 302 303 300 297 297 298 298 299 297 297 297 297 296 296 296 297
296 296 293 291 286 287 285 292 286 287 284 286 289 288 288 289 292 293 286 288 290 294 295 295 297 298 298 299 300 300 300 298 297 297 297 298 300 303 304 304 302 301 299 299 300 298 297 295 296 297 297 297 296 296
296 291 287 286 285 282 288 286 290 288 288 286 285 284 286 287 290 286 284 287 291 294 294 294 296 296 296 297 296 297 298 300 298 298 300 300 300 302 304 304 303 302 301 300 301 299 298 299 295 296 297 297 297 297
285 284 286 281 288 285 283 284 285 285 284 286 284 284 287 287 285 285 285 290 292 293 294 295 295 296 295 295 296 297 299 299 297 296 300 301 303 304 304 305 303 303 304 302 300 300 300 299 298 297 298 298 297 298
280 285 283 284 285 284 285 284 286 286 286 285 287 290 287 286 285 285 289 295 296 296 296 295 294 294 295 296 296 297 298 300 300 299 302 303 305 304 303 301 300 301 304 303 302 300 299 300 300 300 299 296 291 298
280 282 287 291 289 289 287 289 290 288 285 285 288 286 285 283 286 293 299 300 298 299 299 298 297 296 296 296 298 300 302 302 302 303 305 306 307 306 305 303 303 302 305 305 303 302 301 300 299 299 299 299 300 299
286 287 284 288 289 291 287 286 285 284 287 290 288 285 285 288 290 300 303 305 301 300 299 299 300 300 300 301 302 302 302 304 308 307 307 307 307 308 309 307 303 294 304 305 304 304 303 301 299 299 299 298 299 300
285 288 288 285 287 288 287 286 286 288 291 288 287 287 290 298 302 303 305 306 304 302 300 301 303 305 305 305 306 306 306 305 303 300 301 301 303 304 307 306 305 305 304 299 289 297 301 300 300 300 301 300 301 300
286 290 287 287 286 285 288 290 289 291 291 288 289 289 291 298 306 310 309 309 305 303 302 304 305 305 304 303 303 305 306 307 307 304 302 302 304 306 306 306 305 304 304 301 299 297 290 297 295 300 300 300 300 298
291 291 288 288 287 291 293 294 295 295 294 293 292 289 296 302 305 307 307 309 309 308 305 304 304 305 304 304 303 303 302 307 309 308 309 307 307 308 306 306 306 305 304 303 302 301 300 301 301 300 300 299 299 298
290 288 288 288 290 296 298 296 296 296 297 297 295 299 300 300 298 303 308 309 308 305 297 303 304 304 307 307 307 306 297 307 307 307 309 308 309 309 308 306 305 305 305 304 304 303 304 304 304 303 304 303 303 302
292 292 292 292 293 295 300 299 298 297 297 296 297 300 300 298 295 302 308 312 310 306 306 308 309 309 309 309 308 304 300 302 295 292 291 292 293 296 306 307 307 306 305 304 304 304 305 306 305 304 304 303 302 301
Wind_Speed
17 15 14 12 10 7 5 5 6 8 9 10 12 15 15 16 18 11 7 4 3 4 12 6 9 6 8 4 2 7 6 6 4 4 3 4 4 5 7 10 8 4 4 4 6 3 6 12 17 4 8 6 8 4
17 16 14 13 10 8 6 6 7 7 9 9 11 12 14 14 15 13 4 9 8 4 7 17 23 23 15 12 2 3 3 4 3 2 3 3 4 5 5 7 6 5 1 6 4 7 18 16 13 12 13 8 4 4
17 14 12 12 11 10 8 8 8 9 10 10 11 11 13 14 13 9 5 6 7 5 9 6 4 7 6 11 8 4 2 2 2 2 2 2 5 3 4 8 11 7 10 5 14 5 13 12 14 13 18 14 7 9
15 14 13 12 12 11 10 10 9 10 11 12 12 12 13 14 14 12 5 5 5 4 4 7 9 12 16 13 8 8 7 2 4 2 2 3 2 3 4 10 14 11 14 10 14 12 18 10 10 16 10 7 8 9
13 12 12 12 13 12 11 11 10 11 12 12 12 12 12 15 16 11 7 7 6 4 4 9 19 14 8 5 8 5 3 5 3 2 3 4 3 4 4 6 8 3 7 5 11 16 10 20 17 10 7 8 9 9
12 12 11 11 11 12 13 11 10 11 12 11 12 11 12 13 14 5 1 4 4 4 3 6 7 7 8 8 8 6 6 4 3 3 2 3 2 0 4 4 3 16 16 8 7 13 13 12 10 5 7 8 10 9
12 11 11 11 10 8 8 9 10 11 11 11 10 10 12 12 5 4 4 3 9 5 3 5 5 3 7 6 4 3 2 3 4 3 3 3 3 4 4 6 13 13 15 12 9 12 12 12 11 9 9 10 10 9
11 11 10 9 8 8 8 9 10 9 7 9 12 13 14 11 12 6 6 16 6 3 3 4 6 5 1 1 2 3 2 3 2 3 2 3 3 3 4 9 13 15 14 13 12 12 11 12 11 10 11 8 9 8
12 11 10 9 9 7 7 6 6 7 9 11 13 17 6 4 4 0 7 8 4 2 3 4 3 4 4 3 1 3 3 3 2 3 3 2 3 2 5 11 12 14 10 11 14 13 12 11 12 11 10 9 8 9
12 11 10 9 8 7 6 7 8 9 11 12 6 4 3 1 6 5 2 3 4 3 3 4 5 8 6 7 2 4 4 2 4 3 2 1 0 4 4 11 10 10 6 9 13 11 11 9 11 12 10 8 8 8
12 11 10 9 8 7 7 6 5 9 11 3 2 2 3 5 3 5 4 4 5 4 5 5 8 7 4 1 2 3 2 4 4 3 2 1 1 5 10 13 11 11 4 8 7 8 9 10 10 9 8 8 8 7
13 12 11 10 8 7 6 4 4 3 3 4 4 5 4 3 4 5 4 5 6 5 6 4 5 5 2 3 3 2 1 3 5 6 1 1 2 7 10 12 13 7 7 7 8 10 10 10 10 8 7 7 7 9
14 12 12 10 9 6 5 4 3 4 7 3 3 3 3 3 2 6 6 4 4 4 5 4 3 2 3 1 4 2 4 5 2 2 1 2 3 5 8 9 10 6 1 5 7 9 9 9 9 9 7 7 8 8
14 13 12 11 8 7 6 4 3 3 3 3 4 5 5 6 7 7 7 5 2 3 1 3 3 2 3 4 4 4 5 1 1 2 2 1 3 6 7 8 9 3 3 8 9 8 9 11 10 8 7 6 9 9
13 12 11 9 8 7 6 4 1 2 3 4 5 5 7 7 8 7 8 5 3 7 4 2 3 2 3 3 3 3 3 2 2 1 3 1 3 4 7 8 8 2 6 7 7 7 7 9 8 8 8 9 8 7
13 9 6 11 11 9 7 3 3 2 3 4 6 6 7 8 8 6 6 5 6 4 2 2 2 3 4 3 4 4 3 2 2 3 2 2 3 3 5 7 4 8 8 6 6 6 5 7 9 8 6 6 9 8
10 2 9 11 9 11 8 2 3 4 5 6 5 7 8 9 9 9 7 7 6 3 3 3 3 4 3 3 3 3 4 5 1 5 4 3 1 3 4 7 3 8 7 6 6 5 8 7 6 9 9 8 7 5
4 6 6 6 11 7 4 3 3 5 7 6 7 7 7 8 9 10 7 5 2 1 5 6 2 3 2 4 2 3 2 4 4 5 4 4 1 1 4 4 11 8 7 6 4 1 2 6 5 7 8 5 6 4
4 5 8 10 8 1 4 6 5 5 8 7 8 8 9 8 8 9 8 7 5 3 2 3 4 4 5 3 4 4 3 1 2 3 4 6 2 2 4 10 10 8 8 5 1 3 2 6 8 5 7 5 3 3
9 7 10 7 8 2 4 5 3 5 5 4 7 8 9 9 9 9 9 8 7 6 6 6 7 5 2 2 0 2 4 4 4 4 2 3 3 1 3 9 7 9 7 4 2 5 2 5 7 6 4 4 3 2
8 3 4 5 5 5 4 4 5 5 5 6 7 7 6 6 4 3 3 4 3 8 9 8 8 6 6 2 3 1 4 4 3 3 1 2 0 2 3 8 10 8 6 4 3 3 4 6 10 5 4 3 6 5
3 18 4 6 3 3 5 6 5 4 4 6 9 7 5 6 6 5 1 1 3 5 6 7 8 7 6 6 5 3 2 5 4 3 4 5 1 3 3 7 10 8 6 7 5 2 2 3 5 5 4 2 4 2
2 5 3 4 4 5 7 6 6 5 4 4 2 2 3 2 2 5 4 6 6 10 11 10 9 7 5 5 6 7 6 5 4 2 3 3 3 4 5 3 10 10 8 7 9 5 3 2 6 4 4 2 2 4
5 3 4 6 8 6 5 5 5 4 4 4 3 4 4 5 3 5 6 7 10 9 11 16 11 8 7 7 5 3 4 4 4 3 4 4 2 3 4 5 9 10 9 8 7 7 5 4 7 4 4 3 2 3
4 5 4 7 5 4 5 5 12 10 6 4 4 5 4 3 4 5 5 5 9 10 10 12 11 11 8 7 7 5 5 4 4 4 4 4 3 3 5 4 7 11 10 8 8 6 5 7 6 6 5 5 6 5
6 6 6 6 6 5 5 4 3 3 3 4 6 3 2 3 4 5 3 4 8 7 8 11 11 11 9 7 5 6 7 6 3 4 3 4 4 3 4 2 6 8 8 8 8 10 8 5 6 6 6 7 8 7
5 7 8 8 8 7 6 4 4 3 4 5 3 2 4 4 4 2 4 5 7 8 8 9 10 9 9 9 9 8 5 5 5 4 3 5 7 5 3 3 1 7 7 9 9 9 10 9 7 7 6 5 6 8
7 7 10 6 3 5 3 3 2 4 4 3 3 3 3 4 2 3 4 5 10 10 10 10 10 11 9 7 8 7 6 5 7 3 4 2 4 3 2 1 4 8 8 6 6 6 9 9 8 8 7 6 5 6
6 6 9 14 9 3 3 4 4 4 2 1 2 3 3 3 3 0 3 4 3 5 7 9 9 9 8 7 5 8 6 7 9 9 9 6 4 3 3 4 4 7 6 6 6 10 12 9 8 6 7 6 5 8
13 9 7 3 4 6 5 6 5 6 4 3 2 3 4 4 2 1 3 5 6 7 7 8 8 8 8 8 7 8 7 7 7 8 8 6 5 6 4 8 7 8 7 10 10 8 10 9 7 6 6 5 5 8
5 1 3 5 6 7 8 7 10 11 6 6 8 6 3 2 3 4 3 3 5 4 7 8 7 6 8 9 7 8 9 6 8 8 6 3 5 6 5 8 10 9 9 10 9 9 8 6 6 7 9 8 8 7
6 7 6 5 5 5 4 4 2 2 0 7 2 1 3 4 5 5 6 1 3 5 5 7 7 7 7 8 8 7 8 6 4 6 9 7 6 3 4 9 8 8 9 7 9 9 9 8 7 7 8 15 15 16
7 9 10 7 4 4 4 5 4 4 4 4 6 5 6 5 6 4 4 2 4 2 7 6 8 9 12 10 9 7 8 7 7 10 9 10 8 7 4 6 6 9 10 7 6 5 9 17 15 16 15 16 15 15
Wind_Direction
188 193 201 209 217 224 259 290 315 328 330 337 345 351 352 352 355 360 291 335 353 292 288 261 347 312 305 284 277 314 13 357 1 11 330 344 321 344 324 322 287 274 295 292 322 310 271 348 338 21 258 300 285 279
183 192 195 204 212 222 244 270 290 314 324 329 337 340 348 347 349 350 297 344 332 264 274 303 283 267 239 246 255 252 239 348 253 56 337 335 314 291 272 282 326 306 248 279 248 263 299 298 281 294 313 313 309 319
185 193 194 204 213 222 242 258 276 294 308 323 324 330 337 340 335 346 296 302 294 267 291 275 295 9 182 216 192 183 248 213 45 77 322 269 257 348 308 291 301 294 306 303 310 285 302 325 325 331 337 327 343 334
190 194 198 204 215 224 241 258 267 281 295 302 308 318 323 331 326 325 291 299 295 281 293 293 2 329 306 294 248 208 209 256 154 142 236 243 242 237 254 276 288 285 305 296 294 305 313 290 323 332 318 337 339 318
188 196 204 212 217 228 239 251 265 280 288 288 290 305 314 324 322 307 263 251 255 264 298 305 305 282 286 305 208 219 180 177 178 169 189 231 252 281 293 278 271 257 347 322 307 308 314 311 323 311 330 323 312 329
193 203 212 218 225 235 237 249 263 272 281 291 288 294 308 319 326 300 4 99 29 0 297 306 319 280 284 203 227 199 218 179 159 143 214 265 297 330 256 265 308 5 321 352 334 326 310 295 300 282 308 341 353 346
200 207 214 222 223 234 250 259 265 268 274 283 292 294 300 307 302 270 327 307 315 323 267 282 283 297 229 239 208 238 171 156 136 164 217 236 244 215 258 274 345 325 326 323 303 302 318 328 342 9 2 349 351 7
201 204 203 213 222 232 243 256 264 269 278 282 289 295 298 295 280 260 234 245 232 251 262 264 275 272 308 314 21 213 202 132 160 202 207 230 256 209 258 337 324 319 319 306 336 334 320 336 359 359 344 7 357 343
194 198 204 210 218 218 238 253 260 275 283 290 298 293 281 192 227 142 112 98 179 281 283 259 274 282 19 334 341 301 219 198 100 192 218 207 243 217 278 302 307 306 304 320 328 345 352 345 347 340 355 12 351 344
191 196 198 198 210 221 234 252 269 283 291 296 283 224 206 231 136 110 52 204 190 222 241 262 293 282 319 295 307 351 283 230 201 199 78 227 343 248 302 306 295 312 321 358 339 340 349 351 343 352 14 13 359 2
189 192 196 202 205 215 227 242 280 314 281 196 256 6 339 164 206 209 206 195 182 225 213 234 223 252 271 301 291 235 305 294 280 115 239 182 263 338 322 318 325 315 352 16 341 349 359 351 347 12 17 19 20 8
186 190 195 195 198 210 217 231 289 279 53 301 294 270 246 242 219 242 216 196 197 243 165 218 222 205 261 204 207 260 218 292 263 175 225 314 63 329 327 325 320 339 41 350 6 14 4 6 19 27 32 28 24 22
184 188 189 192 193 191 206 228 270 306 304 251 195 244 224 230 216 218 216 220 201 224 164 213 224 210 224 175 232 199 219 231 346 4 4 53 315 332 332 321 329 98 41 18 29 26 16 24 38 41 44 40 42 25
183 189 189 182 187 195 209 211 266 305 255 233 220 226 229 199 217 204 239 270 289 70 297 232 248 239 219 175 234 214 244 20 312 246 63 269 347 325 327 320 325 157 57 36 47 31 34 27 58 46 49 48 51 32
181 174 171 181 191 192 189 196 269 280 271 248 234 234 228 243 278 288 252 218 254 159 229 244 253 245 292 272 247 293 262 154 264 111 231 81 305 308 318 311 316 337 67 49 47 46 41 69 60 59 52 66 63 41
158 151 195 183 183 185 182 189 214 231 259 248 239 262 278 268 259 262 260 216 181 243 208 188 264 259 237 231 213 236 134 283 255 208 185 139 298 293 316 313 314 94 79 78 67 63 22 76 83 86 67 50 73 49
157 210 186 192 183 187 184 212 196 218 242 237 237 235 261 285 283 286 302 300 334 190 211 153 232 220 234 230 286 359 30 278 57 105 117 169 250 316 315 304 78 109 92 94 92 75 72 82 88 92 77 68 67 42
201 159 168 178 185 166 172 213 234 230 240 246 256 268 289 286 283 285 291 281 267 237 254 241 198 233 227 251 234 77 327 65 81 124 149 145 194 341 310 44 114 104 103 108 88 157 112 111 99 111 101 70 61 19
222 159 217 180 171 186 194 204 228 259 236 237 239 242 253 259 257 258 265 268 268 257 264 282 224 201 230 262 302 360 281 69 117 119 141 137 103 357 25 116 120 115 106 106 170 331 350 154 100 87 94 85 74 34
69 146 208 191 192 231 230 208 214 246 260 264 275 263 254 249 254 252 243 239 242 234 230 228 235 242 248 134 99 332 350 16 49 42 99 109 96 40 20 137 119 123 123 135 15 333 44 123 104 92 96 144 89 22
155 182 223 177 198 236 270 267 231 252 264 256 273 269 263 285 283 311 314 356 260 222 223 227 236 233 246 189 173 42 352 17 23 71 97 41 16 312 316 126 133 134 145 133 110 22 342 108 122 151 179 154 132 152
195 167 173 196 242 239 250 236 248 269 265 262 272 263 254 249 255 253 25 211 239 243 246 232 217 224 223 217 175 183 236 287 277 133 122 127 308 286 305 160 148 146 162 154 142 163 235 102 111 129 119 128 135 148
218 175 177 199 242 246 248 214 234 224 247 265 286 257 263 242 203 94 218 219 228 213 217 230 247 227 220 223 194 187 194 249 259 270 151 165 187 231 266 236 154 160 165 154 139 149 197 113 96 102 114 109 54 59
196 211 223 198 204 254 254 205 206 219 229 235 226 234 237 211 191 210 244 232 227 221 207 217 207 217 221 220 238 191 188 239 165 222 149 139 227 253 270 283 129 160 157 148 132 150 154 162 129 138 135 145 112 81
218 229 202 240 229 229 260 240 234 220 244 238 234 223 238 181 220 226 233 244 210 206 188 194 202 195 203 206 200 212 243 252 189 198 160 166 179 142 260 281 127 145 156 142 146 151 133 157 165 175 177 149 142 132
230 225 215 230 214 218 239 272 252 250 245 233 242 227 176 231 250 257 230 222 208 186 170 170 183 187 188 192 205 195 206 211 203 123 117 143 142 210 238 192 115 145 154 147 151 149 167 164 140 143 108 127 140 136
241 253 220 231 271 288 285 291 331 275 277 260 245 232 196 223 235 293 343 121 135 162 155 151 161 171 179 196 213 214 163 130 129 151 191 164 177 233 151 185 179 150 145 142 162 162 164 154 141 122 115 102 105 103
237 267 281 303 249 206 248 257 255 260 261 261 290 278 283 355 30 358 318 353 127 145 155 160 169 182 181 141 123 127 135 138 102 125 129 148 193 137 225 51 22 108 126 128 120 106 121 126 131 133 135 138 139 127
242 254 262 275 298 303 251 225 223 227 241 263 289 283 273 288 283 173 302 310 46 134 121 98 96 105 109 108 113 121 125 142 130 141 161 157 146 172 178 134 132 97 100 86 70 110 125 134 140 147 130 129 126 125
245 236 250 279 230 242 217 201 229 215 200 192 236 289 267 241 245 283 355 43 75 86 105 107 108 117 132 138 134 132 137 145 159 165 147 165 165 161 163 112 108 100 103 106 105 104 95 98 90 91 96 100 101 116
267 121 250 231 252 261 254 249 254 254 223 218 200 222 267 170 68 16 35 88 115 131 123 128 134 135 127 128 142 137 143 148 142 161 192 168 100 83 107 119 123 121 117 118 122 122 125 134 137 133 129 136 144 144
222 226 255 266 270 272 226 237 239 238 3 80 173 267 70 36 56 16 354 341 144 137 124 129 136 135 135 135 144 135 145 135 127 115 98 104 106 106 95 122 115 118 130 137 141 157 166 153 154 138 114 100 95 93
241 239 247 267 287 274 217 201 152 96 33 22 30 47 62 31 46 0 308 341 39 17 134 105 89 89 91 92 98 92 74 76 95 93 97 79 67 54 3 111 121 134 144 151 163 133 113 103 104 107 104 99 92 89